Regional Weather Roundup
Issued by NWS

Home | Current Version | Previous Version | Text Only | Print | Product List | Glossary Off
Versions: 1 2 3 4 5 6 7 8 9 10 11 12 13 14 15 16 17 18 19 20 21 22 23 24 25 26 27 28 29 30 31 32 33 34 35 36 37 38 39 40 41 42 43 44 45 46 47 48 49 50

000
ASUS43 KBIS 271510
RWRND

NORTH DAKOTA REGIONAL WEATHER ROUNDUP
NATIONAL WEATHER SERVICE BISMARCK ND
1000 AM CDT SAT MAY 27 2017

NOTE: "FAIR" INDICATES FEW OR NO CLOUDS BELOW 12,000 FEET WITH NO
SIGNIFICANT WEATHER AND/OR OBSTRUCTIONS TO VISIBILITY.


NDZ001>003-009>011-017-271600-
NORTHWEST NORTH DAKOTA

CITY           SKY/WX    TMP DP  RH WIND       PRES   REMARKS
WILLISTON      FAIR      64  42  44 W8G16     29.86F
MINOT          FAIR      65  42  43 W14       29.81S
MINOT AFB      SUNNY     64  42  45 W15       29.79F
$$

NDZ018>021-031>035-040>046-271600-
SOUTHWEST NORTH DAKOTA

CITY           SKY/WX    TMP DP  RH WIND       PRES   REMARKS
BISMARCK       FAIR      66  42  41 W9        29.89S
DICKINSON      PTSUNNY   56  37  49 W16       29.91S
GARRISON         N/A     59  41  51 W10       29.85S
HETTINGER ARPT SUNNY     63  38  39 W17       29.96S
$$

NDZ004>008-012>016-024-026-027-054-271600-
NORTHEAST NORTH DAKOTA

CITY           SKY/WX    TMP DP  RH WIND       PRES   REMARKS
GRAND FORKS    MOSUNNY   70  46  42 W13       29.77S
GRND FRKS AFB  SUNNY     69  46  43 W14       29.78S
DEVILS LAKE    FAIR      62  44  51 W17       29.81F
$$

NDZ022-023-025-028>030-036>039-047>053-271600-
SOUTHEAST NORTH DAKOTA

CITY           SKY/WX    TMP DP  RH WIND       PRES   REMARKS
FARGO          SUNNY     67  45  45 SW10      29.82S
JAMESTOWN      FAIR      66  41  40 W10       29.84S
$$





USA.gov is the U.S. government's official web portal to all federal, state and local government web resources and services.